Content
SEND FEEDBACK

Daily
Averages
Monthly
Summary
United States of America

CEDAR BLUFFS, NEBRASKA


Home > North America > United States > Nebraska
Elevation: 1187 feet     Latitude: 41 26N     Longitude: 096 29W

WEATHER
 
SELECT A DAY
Number of Records: 432,798;   Date Range: 11/7/95 - 8/28/14
 
SHARE

PRINT THIS DATA

[ ← Previous Day ]
WEATHER ALMANAC - JANUARY 20, 2013
[ Next Day → ]
[ °C ]   °F
Weather ElementAverageHighLow
Temperature17 °F20.7 °F (2:35 pm)13.8 °F (10:35 pm)
Dewpoint9.4 °F12.7 °F (4:55 pm)5.7 °F (3:35 am)
Humidity72.7 %89 % (11:55 pm)55 % (12:55 pm)
Barometer30.37 in30.43 in (11:15 am)30.33 in (12:55 am)
Wind Speed4.7 mph11.5 mph (12:55 am)
Wind Gust17.3 mph (12:55 am)
Weather ElementAverage
Visibility10 mi
Wind DirectionWSW (232.1 °)

Weather ElementTotal
Precipitation---
Heating Degree Days47.8 (Base 65)
Averaged from 71 records on January 20, 2013
WEATHER CONDITIONS BREAKOUT
WIND DIRECTION BREAKOUT
WEATHER BY HOUR - JANUARY 20, 2013
[ °C ]   °F
Local TimeTemperatureDewpointHumidityBarometerVisibilityWind DirectionWind SpeedGust SpeedPrecipitationEventsConditions
12:35 AM19.9 °F12.0 °F71 %30.35 in10.0 miNorth (360°)5.8 mphClear
12:55 AM19.4 °F10.6 °F69 %30.33 in10.0 miNorth (360°)11.5 mph17.3 mphClear
1:15 AM18.9 °F10.6 °F70 %30.33 in10.0 miNorth (360°)6.9 mphClear
1:35 AM18.3 °F10.6 °F72 %30.33 in10.0 miNorth (360°)8.1 mphClear
1:55 AM17.8 °F10.4 °F73 %30.35 in10.0 miNNW (340°)6.9 mphClear
2:15 AM17.6 °F8.4 °F67 %30.34 in10.0 miNNW (340°)6.9 mphClear
2:35 AM17.1 °F7.3 °F66 %30.35 in10.0 miNorth (360°)8.1 mphClear
2:55 AM16.7 °F6.6 °F65 %30.34 in10.0 miNorth (350°)6.9 mphClear
3:15 AM16.7 °F6.8 °F65 %30.34 in10.0 miNorth (360°)5.8 mphClear
3:35 AM16.3 °F5.7 °F63 %30.33 in10.0 miNNW (340°)6.9 mphClear
3:55 AM16.0 °F6.4 °F66 %30.33 in10.0 miNorth (360°)4.6 mphClear
4:15 AM15.8 °F6.4 °F67 %30.33 in10.0 miNorth (360°)4.6 mphClear
4:35 AM15.6 °F6.6 °F68 %30.33 in10.0 miNorth (360°)5.8 mphClear
4:55 AM15.6 °F7.3 °F70 %30.33 in10.0 miNorth (10°)3.5 mphClear
5:15 AM15.4 °F7.3 °F70 %30.33 in10.0 miNorth (360°)5.8 mphClear
5:35 AM15.4 °F7.7 °F71 %30.33 in10.0 miNorth (360°)3.5 mphClear
5:55 AM15.3 °F7.9 °F73 %30.33 in10.0 miCalmClear
6:15 AM15.3 °F8.1 °F73 %30.33 in10.0 miNorth (10°)3.5 mphClear
6:35 AM14.9 °F8.4 °F76 %30.33 in10.0 miCalmClear
6:55 AM14.9 °F8.6 °F76 %30.33 in10.0 miNNE (20°)3.5 mphClear
7:15 AM14.9 °F8.6 °F76 %30.34 in10.0 miNNE (20°)3.5 mphClear
7:35 AM14.9 °F8.4 °F76 %30.34 in10.0 miNNE (20°)3.5 mphClear
7:55 AM14.9 °F8.1 °F74 %30.34 in10.0 miCalmClear
8:15 AM14.9 °F8.4 °F76 %30.34 in10.0 miNNE (30°)3.5 mphClear
8:35 AM15.3 °F8.6 °F75 %30.35 in10.0 miCalmClear
8:55 AM15.3 °F8.4 °F74 %30.36 in10.0 miNNE (20°)3.5 mphClear
9:15 AM15.8 °F7.9 °F71 %30.36 in10.0 miNorth (10°)3.5 mphClear
9:35 AM16.3 °F8.6 °F72 %30.36 in10.0 miNE (40°)6.9 mphMostly Cloudy
9:55 AM17.1 °F8.6 °F69 %30.38 in10.0 miNorth (360°)6.9 mphOvercast
10:15 AM17.2 °F8.2 °F68 %30.39 in10.0 miNNE (20°)5.8 mphOvercast
10:35 AM17.6 °F8.2 °F67 %30.40 in10.0 miNNW (340°)4.6 mphOvercast
10:55 AM17.8 °F8.6 °F67 %30.41 in10.0 miNNW (330°)8.1 mphOvercast
11:15 AM19.2 °F8.8 °F64 %30.43 in10.0 miNNW (340°)8.1 mphMostly Cloudy
11:35 AM19.8 °F8.2 °F61 %30.42 in10.0 miNorth (350°)4.6 mphScattered Clouds
11:55 AM20.1 °F7.2 °F57 %30.42 in10.0 miNNW (330°)5.8 mphMostly Cloudy
12:15 PM19.4 °F6.4 °F57 %30.40 in10.0 miNorth (10°)4.6 mphOvercast
12:35 PM19.4 °F6.4 °F57 %30.39 in10.0 miNNW (330°)3.5 mphOvercast
12:55 PM19.8 °F6.1 °F55 %30.39 in10.0 miNorth (350°)3.5 mphOvercast
1:15 PM20.3 °F6.8 °F56 %30.39 in10.0 miNorth (350°)5.8 mphOvercast
1:35 PM20.3 °F7.2 °F57 %30.39 in10.0 miNorth (360°)6.9 mphOvercast
1:55 PM20.1 °F7.0 °F57 %30.39 in10.0 miNorth (350°)8.1 mphOvercast
2:15 PM19.9 °F7.7 °F59 %30.38 in10.0 miNorth (360°)8.1 mphOvercast
2:35 PM20.7 °F8.6 °F60 %30.39 in10.0 miNorth (360°)6.9 mphOvercast
2:55 PM20.1 °F10.6 °F67 %30.39 in10.0 miNNW (340°)6.9 mphOvercast
3:15 PM20.1 °F10.2 °F66 %30.39 in10.0 miNNW (340°)8.1 mphOvercast
3:35 PM20.1 °F10.4 °F66 %30.39 in10.0 miNNW (330°)8.1 mphOvercast
3:55 PM20.3 °F11.8 °F70 %30.39 in10.0 miNNW (330°)8.1 mphSnowLight Snow
4:15 PM19.9 °F12.2 °F72 %30.38 in10.0 miNorth (350°)6.9 mphOvercast
4:35 PM19.4 °F12.4 °F74 %30.39 in10.0 miNNW (340°)8.1 mphOvercast
4:55 PM19.2 °F12.7 °F76 %30.39 in10.0 miNorth (350°)5.8 mphMostly Cloudy
5:15 PM18.5 °F12.4 °F77 %30.39 in10.0 miNNW (340°)6.9 mphScattered Clouds
5:35 PM17.6 °F12.7 °F81 %30.40 in10.0 miNW (320°)6.9 mphClear
5:55 PM17.2 °F12.0 °F80 %30.40 in10.0 miNW (320°)5.8 mphClear
6:15 PM16.5 °F11.8 °F82 %30.40 in10.0 miCalmClear
6:35 PM15.1 °F11.3 °F85 %30.40 in10.0 miNW (310°)3.5 mphClear
6:55 PM15.4 °F11.7 °F85 %30.39 in10.0 miCalmClear
7:15 PM15.6 °F12.2 °F86 %30.40 in10.0 miNW (320°)3.5 mphClear
7:35 PM14.9 °F11.7 °F87 %30.40 in10.0 miNW (320°)3.5 mphClear
7:55 PM14.9 °F11.3 °F86 %30.40 in10.0 miCalmClear
8:15 PM15.1 °F11.1 °F84 %30.40 in10.0 miNorth (360°)3.5 mphClear
8:35 PM14.9 °F10.9 °F84 %30.40 in10.0 miNorth (360°)3.5 mphMostly Cloudy
8:55 PM14.9 °F11.1 °F85 %30.41 in10.0 miCalmOvercast
9:15 PM14.9 °F10.9 °F84 %30.40 in10.0 miCalmOvercast
9:35 PM14.9 °F11.1 °F85 %30.39 in10.0 miCalmOvercast
9:55 PM15.3 °F11.1 °F84 %30.40 in10.0 miCalmOvercast
10:15 PM15.3 °F10.9 °F83 %30.40 in10.0 miCalmOvercast
10:35 PM13.8 °F10.2 °F86 %30.40 in10.0 miWNW (290°)3.5 mphMostly Cloudy
10:55 PM14.0 °F10.9 °F88 %30.40 in10.0 miWest (280°)3.5 mphMostly Cloudy
11:15 PM14.4 °F11.3 °F88 %30.40 in10.0 miWest (270°)4.6 mphSnowLight Snow
11:35 PM14.0 °F10.9 °F88 %30.40 in10.0 miWest (280°)4.6 mphSnowLight Snow
11:55 PM15.1 °F12.4 °F89 %30.40 in10.0 miWest (280°)4.6 mphSnowLight Snow
Hourly data recorded from KFET, located miles away from Cedar Bluffs, Nebraska







STORIES FROM OUR PARTNERS